This demonstration page uses our WeatherBlox Daily Observations layout. Learn more.

Hourly Observations for April 15, 2019

Temp ( °F °C ) Dew Point ( °F °C ) Humidity (%) Winds ( mph kmh ) Pressure ( in mb ) Visibility ( mi km ) Precip ( " mm )
12:15 am 00:15 Mostly Cloudy 50 10 37 3 62 62 S 12 19 29.7 1006 10 16.0934 0 0
12:35 am 00:35 Cloudy 50 10 37 3 62 62 S 14 22 29.7 1006 10 16.0934 0 0
12:55 am 00:55 Mostly Cloudy 49 9.4 37 2.8 64 64 S 12 19 29.71 1006 10 16.0934 0 0
1:15 am 01:15 Clear 48 9 37 2.5 64 64 S 10 17 29.71 1006 10 16.0934 0 0
1:35 am 01:35 Clear 48 8.8 36 2.3 64 64 SSW 10 17 29.71 1006 10 16.0934 0 0
1:55 am 01:55 Clear 48 8.8 36 2.4 64 64 SSW 9 15 29.71 1006 10 16.0934 0 0
2:15 am 02:15 Clear 47 8.6 37 2.5 66 66 SSW 9 15 29.72 1006 10 16.0934 0 0
2:35 am 02:35 Clear 47 8.2 37 2.6 68 68 SW 8 13 29.71 1006 10 16.0934 0 0
2:55 am 02:55 Clear 47 8.1 37 2.6 69 69 SW 8 13 29.71 1006 10 16.0934 0 0
3:15 am 03:15 Clear 47 8.1 37 2.8 70 70 SW 10 17 29.71 1006 10 16.0934 0 0
3:35 am 03:35 Clear 46 8 37 2.8 70 70 SSW 12 19 29.71 1006 10 16.0934 0 0
3:55 am 03:55 Clear 46 7.8 37 3 72 72 SSW 10 17 29.71 1006 10 16.0934 0 0
4:15 am 04:15 Clear 46 7.9 37 2.9 71 71 SSW 14 22 29.71 1006 10 16.0934 0 0
4:35 am 04:35 Clear 46 7.5 37 2.7 72 72 SSW 13 20 29.71 1006 10 16.0934 0 0
4:55 am 04:55 Clear 45 7.2 37 2.7 73 73 SSW 12 19 29.72 1006 10 16.0934 0 0
5:15 am 05:15 Clear 44 6.5 37 2.7 77 77 SSW 10 17 29.72 1007 10 16.0934 0 0
5:35 am 05:35 Clear 44 6.5 37 2.6 76 76 SW 9 15 29.72 1007 10 16.0934 0 0
5:55 am 05:55 Clear 44 6.5 37 2.5 76 76 SSW 7 11 29.72 1007 10 16.0934 0 0
6:15 am 06:15 Clear 44 6.7 37 2.6 75 75 SSW 10 17 29.73 1007 10 16.0934 0 0
6:35 am 06:35 Clear 44 6.8 37 2.5 74 74 SSW 9 15 29.73 1007 10 16.0934 0 0
6:55 am 06:55 Clear 44 6.5 36 2.3 75 75 SSW 7 11 29.74 1007 10 16.0934 0 0
7:15 am 07:15 Partly Cloudy 44 6.5 37 2.5 76 76 SSW 7 11 29.74 1007 10 16.0934 0 0
7:35 am 07:35 Sunny 45 7.2 37 3 75 75 SW 9 15 29.74 1007 10 16.0934 0 0
7:55 am 07:55 Sunny 47 8.1 38 3.5 73 73 SW 8 13 29.74 1007 10 16.0934 0 0
8:15 am 08:15 Sunny 49 9.3 39 3.8 69 69 SSW 9 15 29.73 1007 10 16.0934 0 0
8:35 am 08:35 Sunny 50 10.2 39 4.1 66 66 SW 9 15 29.72 1006 10 16.0934 0 0
8:55 am 08:55 Sunny 51 10.8 41 4.9 67 67 SSW 10 17 29.73 1007 10 16.0934 0 0
9:15 am 09:15 Sunny 53 11.6 43 5.9 68 68 SW 9 15 29.72 1006 10 16.0934 0 0
9:35 am 09:35 Sunny 55 13 44 6.6 65 65 SW 9 15 29.7 1006 10 16.0934 0 0
9:55 am 09:55 Sunny 57 14.1 45 7.2 63 63 SW 8 13 29.69 1005 10 16.0934 0 0
10:15 am 10:15 Sunny 59 15 45 7.3 60 60 SSW 6 9 29.68 1005 10 16.0934 0 0
10:35 am 10:35 Sunny 61 15.9 46 7.6 58 58 SSW 10 17 29.67 1005 10 16.0934 0 0
10:55 am 10:55 Sunny 62 16.5 46 7.5 56 56 S 12 19 29.67 1005 10 16.0934 0 0
11:15 am 11:15 Sunny 63 17 46 7.6 54 54 SSW 9 15 29.66 1004 10 16.0934 0 0
11:35 am 11:35 Sunny 65 18.5 47 8.2 51 51 SSW 10 17 29.66 1004 10 16.0934 0 0
11:55 am 11:55 Sunny 67 19.7 47 8.2 48 48 S 10 17 29.65 1004 10 16.0934 0 0
12:15 pm 12:15 Sunny 69 20.5 46 7.9 44 44 S 8 13 29.63 1004 10 16.0934 0 0
12:35 pm 12:35 Sunny 72 22.4 44 6.4 36 36 S 12 19 29.62 1003 10 16.0934 0 0
12:55 pm 12:55 Sunny 74 23.6 42 5.3 31 31 S 13 20 29.6 1002 10 16.0934 0 0
1:15 pm 13:15 Sunny 73 22.9 45 7.2 36 36 S 14 22 29.6 1003 10 16.0934 0 0
1:35 pm 13:35 Sunny 72 22.3 45 7 37 37 S 14 22 29.61 1003 10 16.0934 0 0
1:55 pm 13:55 Sunny 74 23.6 44 6.4 33 33 S 15 24 29.58 1002 10 16.0934 0 0
2:15 pm 14:15 Sunny 75 24.1 44 6.4 32 32 S 13 20 29.58 1002 10 16.0934 0 0
2:35 pm 14:35 Sunny 75 23.9 41 5.1 30 30 S 18 30 29.58 1002 10 16.0934 0 0
2:55 pm 14:55 Sunny 77 24.9 43 6.3 30 30 S 15 24 29.57 1001 10 16.0934 0 0
3:15 pm 15:15 Sunny 76 24.5 43 5.9 30 30 S 17 28 29.57 1001 10 16.0934 0 0
3:35 pm 15:35 Sunny 76 24.4 42 5.8 30 30 S 17 28 29.56 1001 10 16.0934 0 0
3:55 pm 15:55 Sunny 75 24.1 42 5.3 30 30 S 17 28 29.57 1001 10 16.0934 0 0
4:15 pm 16:15 Sunny 75 24.1 43 6 31 31 S 15 24 29.57 1001 10 16.0934 0 0
4:35 pm 16:35 Sunny 75 23.7 44 6.9 34 34 SSE 13 20 29.56 1001 10 16.0934 0 0
4:55 pm 16:55 Sunny 75 24 44 6.8 33 33 SSE 13 20 29.56 1001 10 16.0934 0 0
5:15 pm 17:15 Sunny 75 24 45 7.3 34 34 SSE 14 22 29.56 1001 10 16.0934 0 0
5:35 pm 17:35 Sunny 75 24 45 7.1 34 34 SSE 14 22 29.56 1001 10 16.0934 0 0
5:55 pm 17:55 Sunny 75 23.8 46 7.5 35 35 SSE 15 24 29.56 1001 10 16.0934 0 0
6:15 pm 18:15 Sunny 72 22.3 46 7.9 40 40 SSE 12 19 29.57 1001 10 16.0934 0 0
6:35 pm 18:35 Sunny 71 21.7 47 8.2 42 42 SSE 12 19 29.58 1002 10 16.0934 0 0
6:55 pm 18:55 Sunny 70 21.2 48 8.7 45 45 SSE 9 15 29.59 1002 10 16.0934 0 0
7:15 pm 19:15 Sunny 70 21.3 49 9.3 46 46 SE 9 15 29.6 1002 10 16.0934 0 0
7:35 pm 19:35 Sunny 69 20.4 49 9.5 50 50 SE 9 15 29.59 1002 10 16.0934 0 0
7:55 pm 19:55 Sunny 65 18.6 50 10 58 58 SE 9 15 29.61 1003 10 16.0934 0 0
8:15 pm 20:15 Sunny 63 17.1 49 9.5 61 61 SE 8 13 29.62 1003 10 16.0934 0 0
8:35 pm 20:35 Clear 59 15 49 9.5 70 70 ESE 9 15 29.65 1004 10 16.0934 0 0
8:55 pm 20:55 Clear 57 14 49 9.2 73 73 ESE 8 13 29.66 1004 10 16.0934 0 0
9:15 pm 21:15 Clear 58 14.2 48 9.1 72 72 E 8 13 29.67 1005 10 16.0934 0 0
9:35 pm 21:35 Clear 56 13.3 48 8.9 75 75 E 10 17 29.67 1005 10 16.0934 0 0
9:55 pm 21:55 Clear 57 13.7 48 8.9 73 73 E 9 15 29.69 1005 10 16.0934 0 0
10:15 pm 22:15 Clear 55 12.7 47 8.5 76 76 NNE 12 19 29.7 1006 10 16.0934 0 0
10:35 pm 22:35 Clear 60 15.4 48 9 66 66 ENE 13 20 29.7 1006 10 16.0934 0 0
10:55 pm 22:55 Clear 57 13.7 48 8.8 72 72 NE 13 20 29.72 1006 10 16.0934 0 0
11:15 pm 23:15 Clear 55 12.6 47 8.6 77 77 NE 16 26 29.74 1007 10 16.0934 0 0
11:35 pm 23:35 Clear 53 11.7 46 7.7 77 77 NE 21 33 29.75 1007 10 16.0934 0 0
11:55 pm 23:55 Clear 52 11 45 7.3 78 78 NNE 16 26 29.75 1008 10 16.0934 0 0

Powered by AerisWeather